{"data":{"norad_id":58395,"intl_designator":"2023-178X","name":"STARLINK-30934","alt_names":[],"object_type":"PAYLOAD","status":"ACTIVE","operator":null,"country":"US","launch_date":"2023-11-20","launch_site_code":"AFWTR","launch_vehicle":null,"mission":null,"orbit_class":"UNKNOWN","rcs_meters":null,"size_class":null,"mass_kg":null,"dimensions":null,"purposes":["comms"],"wikipedia_slug":null,"has_3d_model":false,"image_url":null,"decayed_at":null,"tle_current":{"epoch":"2026-05-24T23:53:41.089344Z","epoch_age_seconds":69343,"freshness":"FRESH","line1":"1 58395U 23178X   26144.99561446  .00000527  00000+0  26756-4 0  9995","line2":"2 58395  53.1605   6.0458 0001220  93.0047 267.1096 15.34385849141516","mean_motion":15.34385849,"eccentricity":0.000122,"inclination_deg":53.1605,"raan_deg":6.0458,"arg_perigee_deg":93.0047,"mean_anomaly_deg":267.1096,"bstar":2.6756e-5,"rev_number":14151,"period_min":93.848623600021,"perigee_km":461.91071264391,"apogee_km":463.57988792518,"semimajor_km":6840.8823002845,"source":"CELESTRAK","updated_at":"2026-05-25T13:38:18.616148Z"}}}